Overview Statistics Trail Chart Weather Telemetry Raw packets
 

This is the latest recevied weather packets stored in our database for station/object KD0MAC. If no packets are shown the sender has not sent any weather packets the latest 10 day(s).

<< 102 103 104 105 106 107 108 >>
Time Temp. Humidity Pressure Rain* Wind** Luminosity Snow
1787929208 24.44° C 69% 1019.6 hPa 0 mm - 290 W/m² -
1787928908 24.44° C 67% 1019.6 hPa 0 mm - 277 W/m² -
1787928608 23.89° C 67% 1019.6 hPa 0 mm - 264 W/m² -
1787928310 23.89° C 68% 1019.6 hPa 0 mm - 253 W/m² -
1787928009 23.89° C 70% 1019.6 hPa 0 mm - 239 W/m² -
1787927709 23.33° C 72% 1019.6 hPa 0 mm - 225 W/m² -
1787927408 23.33° C 72% 1020 hPa 0 mm - 213 W/m² -
1787927109 22.78° C 74% 1020 hPa 0 mm - 200 W/m² -
1787926815 22.78° C 74% 1020 hPa 0 mm - 189 W/m² -
1787926509 22.22° C 74% 1020 hPa 0 mm - 187 W/m² -
1787926208 22.22° C 74% 1020 hPa 0 mm - 175 W/m² -
1787925913 21.67° C 75% 1020 hPa 0 mm - 163 W/m² -
1787925608 21.67° C 76% 1020 hPa 0 mm - 151 W/m² -
1787925309 21.67° C 75% 1020 hPa 0 mm - 139 W/m² -
1787925008 21.11° C 76% 1020 hPa 0 mm - 128 W/m² -
1787924709 20.56° C 79% 1020 hPa 0 mm - 116 W/m² -
1787924409 20.56° C 81% 1020 hPa 0 mm - 104 W/m² -
1787924109 20° C 82% 1020 hPa 0 mm - 61 W/m² -
1787923809 19.44° C 84% 1020 hPa 0 mm - 44 W/m² -
1787923509 19.44° C 84% 1020 hPa 0 mm - 42 W/m² -
1787923208 19.44° C 85% 1020 hPa 0 mm - 40 W/m² -
1787922910 18.89° C 85% 1020 hPa 0 mm - 40 W/m² -
1787922323 18.89° C 87% 1020 hPa 0 mm - 35 W/m² -
1787922009 18.89° C 88% 1020 hPa 0 mm - 33 W/m² -
1787921708 18.33° C 88% 1019.6 hPa 0 mm - 30 W/m² -

* Rain latest hour (hover to see other rain measurements)
** Current wind speed in m/s (hover to see current wind gust speed)